,,Stat6,,Stat2,,Stat8,,Stat9,,Stat10,,Wind1,,Wind1,
time,status,PA1M_AVG,status,PR1M_SUM,status,RH1M_AVG,status,SR1M_AVG,status,TA1M_AVG,status,W1dAve1m,status,W1sAve1m,
2005-03-31, 00:00:00,VALID,916.82,VALID,0,VALID,100,VALID,0.0169808,VALID,18.6951,VALID,23,VALID,0.288876,
2005-03-31, 00:01:00,VALID,916.811,VALID,0,VALID,100,VALID,0,VALID,18.6919,VALID,23,VALID,0.338068,
2005-03-31, 00:02:00,VALID,916.797,VALID,0,VALID,99.9367,VALID,-0.0339617,VALID,18.6757,VALID,10,VALID,0.883322,
2005-03-31, 00:03:00,VALID,916.793,VALID,0,VALID,99.0135,VALID,-0.0339617,VALID,18.5724,VALID,9,VALID,1.31541,
2005-03-31, 00:04:00,VALID,916.787,VALID,0,VALID,98.1234,VALID,-0.0679233,VALID,18.5764,VALID,10,VALID,1.15607,
2005-03-31, 00:05:00,VALID,916.774,VALID,0,VALID,96.937,VALID,-0.0339617,VALID,18.5662,VALID,359,VALID,1.12424,
2005-03-31, 00:06:00,VALID,916.768,VALID,0,VALID,95.8624,VALID,-0.0849042,VALID,18.5865,VALID,9,VALID,1.34215,
2005-03-31, 00:07:00,VALID,916.765,VALID,0,VALID,95.6208,VALID,-0.0509425,VALID,18.5962,VALID,345,VALID,1.19551,
2005-03-31, 00:08:00,VALID,916.757,VALID,0,VALID,94.6938,VALID,-0.0509425,VALID,18.6117,VALID,322,VALID,0.78683,
2005-03-31, 00:09:00,VALID,916.748,VALID,0,VALID,94.76,VALID,-0.0509425,VALID,18.6308,VALID,330,VALID,0.820833,
2005-03-31, 00:10:00,VALID,916.729,VALID,0,VALID,94.8871,VALID,-0.0509425,VALID,18.6513,VALID,356,VALID,0.755996,
2005-03-31, 00:11:00,VALID,916.721,VALID,0,VALID,94.4955,VALID,-0.0679233,VALID,18.6379,VALID,341,VALID,1.11024,
2005-03-31, 00:12:00,VALID,916.706,VALID,0,VALID,93.9614,VALID,-0.0679233,VALID,18.6151,VALID,314,VALID,1.32324,
2005-03-31, 00:13:00,VALID,916.697,VALID,0,VALID,94.7091,VALID,-0.0509425,VALID,18.6442,VALID,259,VALID,0.578125,
2005-03-31, 00:14:00,VALID,916.668,VALID,0,VALID,96.1473,VALID,-0.0849042,VALID,18.6732,VALID,262,VALID,0.417436,
2005-03-31, 00:15:00,VALID,916.653,VALID,0,VALID,96.9052,VALID,-0.0849042,VALID,18.6638,VALID,311,VALID,0.57691,
2005-03-31, 00:16:00,VALID,916.632,VALID,0,VALID,97.1391,VALID,-0.101885,VALID,18.632,VALID,356,VALID,0.445694,
2005-03-31, 00:17:00,VALID,916.627,VALID,0,VALID,96.8556,VALID,-0.0679233,VALID,18.5992,VALID,317,VALID,0.641741,
2005-03-31, 00:18:00,VALID,916.628,VALID,0,VALID,96.984,VALID,-0.101885,VALID,18.6057,VALID,259,VALID,0.767045,
2005-03-31, 00:19:00,VALID,916.614,VALID,0,VALID,98.0916,VALID,-0.0849042,VALID,18.6511,VALID,261,VALID,0.421512,
2005-03-31, 00:20:00,VALID,916.611,VALID,0,VALID,98.5201,VALID,-0.0509425,VALID,18.6317,VALID,262,VALID,0.157885,
2005-03-31, 00:21:00,VALID,916.614,VALID,0,VALID,98.6218,VALID,-0.0679233,VALID,18.6059,VALID,275,VALID,0.254883,
2005-03-31, 00:22:00,VALID,916.611,VALID,0,VALID,98.9219,VALID,-0.0679233,VALID,18.599,VALID,279,VALID,0.186967,
2005-03-31, 00:23:00,VALID,916.619,VALID,0,VALID,99.1394,VALID,-0.0679233,VALID,18.5895,VALID,280,VALID,0.41183,
2005-03-31, 00:24:00,VALID,916.627,VALID,0,VALID,98.5315,VALID,-0.0679233,VALID,18.515,VALID,325,VALID,0.319949,
2005-03-31, 00:25:00,VALID,916.61,VALID,0,VALID,98.6422,VALID,-0.0679233,VALID,18.5213,VALID,337,VALID,0.290661,
2005-03-31, 00:26:00,VALID,916.591,VALID,0,VALID,98.7782,VALID,-0.0849042,VALID,18.5314,VALID,360,VALID,0.627486,
2005-03-31, 00:27:00,VALID,916.593,VALID,0,VALID,98.1691,VALID,-0.0849042,VALID,18.4862,VALID,7,VALID,0.754687,
2005-03-31, 00:28:00,VALID,916.578,VALID,0,VALID,96.4881,VALID,-0.0679233,VALID,18.4447,VALID,15,VALID,0.831936,
2005-03-31, 00:29:00,VALID,916.583,VALID,0,VALID,95.4047,VALID,-0.0849042,VALID,18.4383,VALID,19,VALID,0.766927,
2005-03-31, 00:30:00,VALID,916.558,VALID,0,VALID,94.7905,VALID,-0.0849042,VALID,18.4673,VALID,15,VALID,0.84375,
2005-03-31, 00:31:00,VALID,916.55,VALID,0,VALID,95.027,VALID,-0.0849042,VALID,18.4897,VALID,17,VALID,0.42016,
2005-03-31, 00:32:00,VALID,916.547,VALID,0,VALID,94.9367,VALID,-0.101885,VALID,18.4897,VALID,18,VALID,0.212391,
2005-03-31, 00:33:00,VALID,916.538,VALID,0,VALID,95.0702,VALID,-0.0849042,VALID,18.4835,VALID,18,VALID,0,
2005-03-31, 00:34:00,VALID,916.529,VALID,0,VALID,95.13,VALID,0,VALID,18.4595,VALID,18,VALID,0,
2005-03-31, 00:35:00,VALID,916.498,VALID,0,VALID,95.4085,VALID,0.0169808,VALID,18.4694,VALID,18,VALID,0,
2005-03-31, 00:36:00,VALID,916.484,VALID,0,VALID,95.542,VALID,0.0169808,VALID,18.456,VALID,18,VALID,0,
2005-03-31, 00:37:00,VALID,916.455,VALID,0,VALID,94.7994,VALID,0.0339617,VALID,18.4468,VALID,28,VALID,0.405134,
2005-03-31, 00:38:00,VALID,916.442,VALID,0,VALID,94.203,VALID,0,VALID,18.4339,VALID,46,VALID,0.336277,
2005-03-31, 00:39:00,VALID,916.432,VALID,0,VALID,95.1059,VALID,0,VALID,18.4724,VALID,47,VALID,0.0904796,
2005-03-31, 00:40:00,VALID,916.417,VALID,0,VALID,95.1389,VALID,0.0169808,VALID,18.4816,VALID,47,VALID,0.229759,
2005-03-31, 00:41:00,VALID,916.391,VALID,0,VALID,95.1275,VALID,0.0169808,VALID,18.4786,VALID,47,VALID,0.387463,
2005-03-31, 00:42:00,VALID,916.374,VALID,0,VALID,95.8599,VALID,0,VALID,18.4913,VALID,47,VALID,0.16495,
2005-03-31, 00:43:00,VALID,916.364,VALID,0,VALID,95.7912,VALID,0,VALID,18.4984,VALID,47,VALID,0.251906,
2005-03-31, 00:44:00,VALID,916.336,VALID,0,VALID,96.3762,VALID,0.0169808,VALID,18.4982,VALID,106,VALID,0.482376,
2005-03-31, 00:45:00,VALID,916.328,VALID,0,VALID,96.8581,VALID,0,VALID,18.4984,VALID,107,VALID,0.539621,
2005-03-31, 00:46:00,VALID,916.317,VALID,0,VALID,95.9731,VALID,0.0169808,VALID,18.4659,VALID,107,VALID,0.019436,
2005-03-31, 00:47:00,VALID,916.302,VALID,0,VALID,96.2592,VALID,0.0339617,VALID,18.4825,VALID,107,VALID,0.00186012,
2005-03-31, 00:48:00,VALID,916.285,VALID,0,VALID,96.4944,VALID,0,VALID,18.5049,VALID,107,VALID,0.091654,
2005-03-31, 00:49:00,VALID,916.288,VALID,0,VALID,97.0056,VALID,0,VALID,18.5307,VALID,107,VALID,0.214753,
2005-03-31, 00:50:00,VALID,916.26,VALID,0,VALID,97.3299,VALID,0,VALID,18.5404,VALID,74,VALID,0.530488,
2005-03-31, 00:51:00,VALID,916.268,VALID,0,VALID,97.4087,VALID,0.0169808,VALID,18.4954,VALID,51,VALID,0.307692,
2005-03-31, 00:52:00,VALID,916.254,VALID,0,VALID,97.6096,VALID,0,VALID,18.4597,VALID,51,VALID,0.0245536,
2005-03-31, 00:53:00,VALID,916.243,VALID,0,VALID,97.4939,VALID,0.0339617,VALID,18.4436,VALID,46,VALID,0.221354,
2005-03-31, 00:54:00,VALID,916.229,VALID,0,VALID,96.6534,VALID,-0.0169808,VALID,18.3947,VALID,20,VALID,0.707485,
2005-03-31, 00:55:00,VALID,916.214,VALID,0,VALID,95.9006,VALID,0.0169808,VALID,18.3951,VALID,22,VALID,1.09484,
2005-03-31, 00:56:00,VALID,916.198,VALID,0,VALID,96.0799,VALID,0,VALID,18.3984,VALID,31,VALID,0.861793,
2005-03-31, 00:57:00,VALID,916.191,VALID,0,VALID,96.1257,VALID,0.0169808,VALID,18.3691,VALID,30,VALID,0.664825,
2005-03-31, 00:58:00,VALID,916.174,VALID,0,VALID,96.2617,VALID,0.0509425,VALID,18.34,VALID,29,VALID,0.440972,
2005-03-31, 00:59:00,VALID,916.158,VALID,0,VALID,96.3304,VALID,0,VALID,18.3278,VALID,29,VALID,0.556974,
2005-03-31, 01:00:00,VALID,916.147,VALID,0,VALID,96.5885,VALID,0,VALID,18.311,VALID,29,VALID,0.250401,
2005-03-31, 01:01:00,VALID,916.131,VALID,0,VALID,96.8696,VALID,0.0339617,VALID,18.3112,VALID,29,VALID,0.0401278,
2005-03-31, 01:02:00,VALID,916.124,VALID,0,VALID,97.148,VALID,0.0169808,VALID,18.3013,VALID,29,VALID,0,
2005-03-31, 01:03:00,VALID,916.102,VALID,0,VALID,97.3909,VALID,0.0169808,VALID,18.2981,VALID,29,VALID,0,
2005-03-31, 01:04:00,VALID,916.09,VALID,0,VALID,97.616,VALID,0,VALID,18.3147,VALID,29,VALID,0.163872,
2005-03-31, 01:05:00,VALID,916.074,VALID,0,VALID,97.5066,VALID,0.0169808,VALID,18.2978,VALID,29,VALID,0.407158,
2005-03-31, 01:06:00,VALID,916.057,VALID,0,VALID,97.1277,VALID,0,VALID,18.2759,VALID,29,VALID,0.460565,
2005-03-31, 01:07:00,VALID,916.053,VALID,0,VALID,97.4036,VALID,0,VALID,18.2854,VALID,29,VALID,0.257813,
2005-03-31, 01:08:00,VALID,916.045,VALID,0,VALID,97.6402,VALID,-0.0169808,VALID,18.2819,VALID,28,VALID,0.397727,
2005-03-31, 01:09:00,VALID,916.045,VALID,0,VALID,97.6808,VALID,0,VALID,18.2852,VALID,25,VALID,0.469494,
2005-03-31, 01:10:00,VALID,916.036,VALID,0,VALID,97.1836,VALID,0,VALID,18.2531,VALID,25,VALID,0.393403,
2005-03-31, 01:11:00,VALID,916.025,VALID,0,VALID,96.8721,VALID,0.0169808,VALID,18.257,VALID,25,VALID,0.137173,
2005-03-31, 01:12:00,VALID,916.021,VALID,0,VALID,96.9382,VALID,0,VALID,18.2434,VALID,25,VALID,0.00228659,
2005-03-31, 01:13:00,VALID,916.013,VALID,0,VALID,97.0743,VALID,0,VALID,18.2563,VALID,25,VALID,0,
2005-03-31, 01:14:00,VALID,916.012,VALID,0,VALID,97.2867,VALID,0,VALID,18.2824,VALID,25,VALID,0,
2005-03-31, 01:15:00,VALID,916.017,VALID,0,VALID,97.4736,VALID,0,VALID,18.296,VALID,25,VALID,0.0522017,
2005-03-31, 01:16:00,VALID,916,VALID,0,VALID,97.4685,VALID,0,VALID,18.2824,VALID,23,VALID,0.159226,
2005-03-31, 01:17:00,VALID,915.989,VALID,0,VALID,97.349,VALID,0,VALID,18.2593,VALID,23,VALID,0.241629,
2005-03-31, 01:18:00,VALID,915.989,VALID,0,VALID,96.7182,VALID,0,VALID,18.2529,VALID,22,VALID,0.0614984,
2005-03-31, 01:19:00,VALID,915.984,VALID,0,VALID,96.4614,VALID,0,VALID,18.2722,VALID,22,VALID,0,
2005-03-31, 01:20:00,VALID,915.976,VALID,0,VALID,96.5211,VALID,0,VALID,18.2951,VALID,16,VALID,0.197674,
2005-03-31, 01:21:00,VALID,915.972,VALID,0,VALID,95.2801,VALID,0.0169808,VALID,18.3308,VALID,359,VALID,0.328488,
2005-03-31, 01:22:00,VALID,915.981,VALID,0,VALID,95.6654,VALID,0,VALID,18.418,VALID,350,VALID,0.283727,
2005-03-31, 01:23:00,VALID,915.969,VALID,0,VALID,95.4848,VALID,0,VALID,18.4145,VALID,304,VALID,0.385174,
2005-03-31, 01:24:00,VALID,915.962,VALID,0,VALID,96.0621,VALID,0,VALID,18.4046,VALID,284,VALID,0.343217,
2005-03-31, 01:25:00,VALID,915.949,VALID,0,VALID,96.2808,VALID,0.0169808,VALID,18.3921,VALID,284,VALID,0.115473,
2005-03-31, 01:26:00,VALID,915.953,VALID,0,VALID,96.3609,VALID,0.0339617,VALID,18.382,VALID,284,VALID,0,
2005-03-31, 01:27:00,VALID,915.935,VALID,0,VALID,96.8174,VALID,0.0339617,VALID,18.3984,VALID,284,VALID,0.151867,
2005-03-31, 01:28:00,VALID,915.93,VALID,0,VALID,97.1836,VALID,0.0169808,VALID,18.4113,VALID,285,VALID,0.0483285,
2005-03-31, 01:29:00,VALID,915.923,VALID,0,VALID,97.4723,VALID,0,VALID,18.3887,VALID,285,VALID,0.0123547,
2005-03-31, 01:30:00,VALID,915.913,VALID,0,VALID,97.6618,VALID,0,VALID,18.3891,VALID,285,VALID,0,
2005-03-31, 01:31:00,VALID,915.904,VALID,0,VALID,97.794,VALID,0.0169808,VALID,18.3695,VALID,285,VALID,0,
2005-03-31, 01:32:00,VALID,915.891,VALID,0,VALID,97.9237,VALID,0,VALID,18.3499,VALID,285,VALID,0,
2005-03-31, 01:33:00,VALID,915.886,VALID,0,VALID,97.8207,VALID,0,VALID,18.3273,VALID,285,VALID,0.0684443,
2005-03-31, 01:34:00,VALID,915.879,VALID,0,VALID,97.6732,VALID,0,VALID,18.3052,VALID,341,VALID,0.44407,
2005-03-31, 01:35:00,VALID,915.874,VALID,0,VALID,97.3718,VALID,0,VALID,18.2729,VALID,16,VALID,0.580256,
2005-03-31, 01:36:00,VALID,915.859,VALID,0,VALID,97.4685,VALID,-0.0339617,VALID,18.2628,VALID,16,VALID,0.572852,
2005-03-31, 01:37:00,VALID,915.85,VALID,0,VALID,97.2358,VALID,0,VALID,18.2404,VALID,19,VALID,0.617369,
2005-03-31, 01:38:00,VALID,915.841,VALID,0,VALID,97.485,VALID,0,VALID,18.2374,VALID,20,VALID,0.453887,
2005-03-31, 01:39:00,VALID,915.811,VALID,0,VALID,97.3337,VALID,0,VALID,18.2215,VALID,32,VALID,0.499628,
2005-03-31, 01:40:00,VALID,915.792,VALID,0,VALID,96.8657,VALID,0,VALID,18.2017,VALID,57,VALID,0.478237,
2005-03-31, 01:41:00,VALID,915.783,VALID,0,VALID,96.8162,VALID,-0.0169808,VALID,18.1895,VALID,62,VALID,0.277071,
2005-03-31, 01:42:00,VALID,915.77,VALID,0,VALID,96.9242,VALID,-0.0339617,VALID,18.1724,VALID,62,VALID,0.0476372,
2005-03-31, 01:43:00,VALID,915.755,VALID,0,VALID,97.1213,VALID,0,VALID,18.1828,VALID,62,VALID,0,
2005-03-31, 01:44:00,VALID,915.736,VALID,0,VALID,97.3223,VALID,0,VALID,18.1856,VALID,62,VALID,0,
2005-03-31, 01:45:00,VALID,915.731,VALID,0,VALID,97.5105,VALID,-0.0169808,VALID,18.1756,VALID,66,VALID,0.166349,
2005-03-31, 01:46:00,VALID,915.711,VALID,0,VALID,97.4011,VALID,0,VALID,18.1796,VALID,106,VALID,0.57641,
2005-03-31, 01:47:00,VALID,915.687,VALID,0,VALID,97.3223,VALID,0,VALID,18.1602,VALID,133,VALID,0.673611,
2005-03-31, 01:48:00,VALID,915.666,VALID,0,VALID,97.3439,VALID,0,VALID,18.1567,VALID,170,VALID,0.458984,
2005-03-31, 01:49:00,VALID,915.644,VALID,0,VALID,97.4087,VALID,-0.0339617,VALID,18.1443,VALID,167,VALID,0.363917,
2005-03-31, 01:50:00,VALID,915.626,VALID,0,VALID,97.1875,VALID,-0.0509425,VALID,18.1406,VALID,165,VALID,0.377362,
2005-03-31, 01:51:00,VALID,915.607,VALID,0,VALID,97.2727,VALID,-0.0509425,VALID,18.1574,VALID,150,VALID,0.337847,
2005-03-31, 01:52:00,VALID,915.588,VALID,0,VALID,97.0056,VALID,0,VALID,18.1666,VALID,148,VALID,0.334484,
2005-03-31, 01:53:00,VALID,915.565,VALID,0,VALID,96.1613,VALID,-0.0169808,VALID,18.1602,VALID,143,VALID,0.33194,
2005-03-31, 01:54:00,VALID,915.551,VALID,0,VALID,95.6806,VALID,-0.0169808,VALID,18.2058,VALID,143,VALID,0.0697409,
2005-03-31, 01:55:00,VALID,915.525,VALID,0,VALID,95.4174,VALID,-0.0339617,VALID,18.2441,VALID,139,VALID,0.324405,
2005-03-31, 01:56:00,VALID,915.51,VALID,0,VALID,94.7523,VALID,-0.0509425,VALID,18.2994,VALID,125,VALID,0.530362,
2005-03-31, 01:57:00,VALID,915.484,VALID,0,VALID,94.8541,VALID,-0.0339617,VALID,18.3509,VALID,121,VALID,0.309304,
2005-03-31, 01:58:00,VALID,915.468,VALID,0,VALID,95.3856,VALID,-0.0679233,VALID,18.3795,VALID,121,VALID,0.0619284,
2005-03-31, 01:59:00,VALID,915.46,VALID,0,VALID,95.673,VALID,-0.0509425,VALID,18.3894,VALID,121,VALID,0.0583079,
2005-03-31, 02:00:00,VALID,915.439,VALID,0,VALID,95.9667,VALID,-0.0339617,VALID,18.3797,VALID,121,VALID,0.170703,
2005-03-31, 02:01:00,VALID,915.427,VALID,0,VALID,96.4652,VALID,-0.0169808,VALID,18.3765,VALID,121,VALID,0.351381,
2005-03-31, 02:02:00,VALID,915.409,VALID,0,VALID,96.6865,VALID,-0.0339617,VALID,18.3469,VALID,121,VALID,0.164993,
2005-03-31, 02:03:00,VALID,915.392,VALID,0,VALID,97.073,VALID,-0.0509425,VALID,18.3313,VALID,121,VALID,0.0342262,
2005-03-31, 02:04:00,VALID,915.367,VALID,0,VALID,97.4431,VALID,0,VALID,18.3121,VALID,121,VALID,0.279251,
2005-03-31, 02:05:00,VALID,915.359,VALID,0,VALID,97.7419,VALID,-0.0509425,VALID,18.2861,VALID,121,VALID,0.00613839,
2005-03-31, 02:06:00,VALID,915.346,VALID,0,VALID,97.8576,VALID,-0.0509425,VALID,18.2575,VALID,121,VALID,0,
2005-03-31, 02:07:00,VALID,915.338,VALID,0,VALID,98.0038,VALID,-0.0679233,VALID,18.2377,VALID,121,VALID,0.0598958,
2005-03-31, 02:08:00,VALID,915.333,VALID,0,VALID,98.0051,VALID,-0.0169808,VALID,18.2185,VALID,121,VALID,0.197129,
2005-03-31, 02:09:00,VALID,915.328,VALID,0,VALID,97.8411,VALID,-0.0339617,VALID,18.1989,VALID,121,VALID,0.153201,
2005-03-31, 02:10:00,VALID,915.315,VALID,0,VALID,97.8945,VALID,-0.0679233,VALID,18.1826,VALID,121,VALID,0.194404,
2005-03-31, 02:11:00,VALID,915.311,VALID,0,VALID,97.9148,VALID,-0.0509425,VALID,18.1927,VALID,121,VALID,0.384722,
2005-03-31, 02:12:00,VALID,915.288,VALID,0,VALID,97.7203,VALID,-0.0509425,VALID,18.1959,VALID,114,VALID,0.417081,
2005-03-31, 02:13:00,VALID,915.272,VALID,0,VALID,97.1633,VALID,-0.0169808,VALID,18.183,VALID,34,VALID,0.448438,
2005-03-31, 02:14:00,VALID,915.27,VALID,0,VALID,97.1379,VALID,-0.0169808,VALID,18.1798,VALID,19,VALID,0.677782,
2005-03-31, 02:15:00,VALID,915.256,VALID,0,VALID,97.2612,VALID,-0.0679233,VALID,18.1701,VALID,1,VALID,0.570313,
2005-03-31, 02:16:00,VALID,915.245,VALID,0,VALID,97.1455,VALID,-0.0679233,VALID,18.1572,VALID,336,VALID,0.483507,
2005-03-31, 02:17:00,VALID,915.244,VALID,0,VALID,97.2345,VALID,-0.0509425,VALID,18.1477,VALID,336,VALID,0,
2005-03-31, 02:18:00,VALID,915.236,VALID,0,VALID,97.2154,VALID,-0.0679233,VALID,18.1346,VALID,352,VALID,0.451923,
2005-03-31, 02:19:00,VALID,915.232,VALID,0,VALID,97.1875,VALID,-0.0339617,VALID,18.1374,VALID,6,VALID,0.490659,
2005-03-31, 02:20:00,VALID,915.233,VALID,0,VALID,97.3337,VALID,-0.0339617,VALID,18.1441,VALID,6,VALID,0.244792,
2005-03-31, 02:21:00,VALID,915.23,VALID,0,VALID,97.232,VALID,-0.0169808,VALID,18.1346,VALID,6,VALID,0.237805,
2005-03-31, 02:22:00,VALID,915.226,VALID,0,VALID,97.3591,VALID,-0.0339617,VALID,18.1249,VALID,6,VALID,0.145419,
2005-03-31, 02:23:00,VALID,915.212,VALID,0,VALID,97.5194,VALID,-0.0339617,VALID,18.1281,VALID,7,VALID,0.301847,
2005-03-31, 02:24:00,VALID,915.2,VALID,0,VALID,97.6592,VALID,-0.0509425,VALID,18.1251,VALID,31,VALID,0.78343,
2005-03-31, 02:25:00,VALID,915.194,VALID,0,VALID,97.8309,VALID,-0.0339617,VALID,18.0917,VALID,35,VALID,1.04023,
2005-03-31, 02:26:00,VALID,915.209,VALID,0,VALID,98.1374,VALID,-0.0339617,VALID,18.0601,VALID,26,VALID,0.984557,
2005-03-31, 02:27:00,VALID,915.216,VALID,0,VALID,98.3154,VALID,-0.0509425,VALID,18.038,VALID,25,VALID,0.824574,
2005-03-31, 02:28:00,VALID,915.224,VALID,0,VALID,98.4985,VALID,-0.0169808,VALID,17.9824,VALID,31,VALID,0.754607,
2005-03-31, 02:29:00,VALID,915.249,VALID,0,VALID,98.6854,VALID,-0.0339617,VALID,17.9571,VALID,38,VALID,0.46875,
2005-03-31, 02:30:00,VALID,915.26,VALID,0,VALID,98.7681,VALID,-0.0509425,VALID,17.9377,VALID,38,VALID,0.313834,
2005-03-31, 02:31:00,VALID,915.278,VALID,0,VALID,98.9016,VALID,-0.0679233,VALID,17.9377,VALID,105,VALID,0.599201,
2005-03-31, 02:32:00,VALID,915.29,VALID,0,VALID,98.9359,VALID,-0.0509425,VALID,17.9248,VALID,114,VALID,0.699609,
2005-03-31, 02:33:00,VALID,915.308,VALID,0,VALID,98.8596,VALID,-0.0339617,VALID,17.9084,VALID,105,VALID,0.773624,
2005-03-31, 02:34:00,VALID,915.323,VALID,0,VALID,98.7465,VALID,-0.0339617,VALID,17.8992,VALID,102,VALID,0.896528,
2005-03-31, 02:35:00,VALID,915.328,VALID,0,VALID,98.8673,VALID,-0.0339617,VALID,17.9089,VALID,109,VALID,0.736607,
2005-03-31, 02:36:00,VALID,915.312,VALID,0,VALID,99.1445,VALID,0,VALID,17.9347,VALID,129,VALID,0.616477,
2005-03-31, 02:37:00,VALID,915.298,VALID,0,VALID,99.5488,VALID,-0.0849042,VALID,17.9571,VALID,131,VALID,0.833807,
2005-03-31, 02:38:00,VALID,915.278,VALID,0,VALID,99.7269,VALID,-0.101885,VALID,17.9672,VALID,102,VALID,0.715588,
2005-03-31, 02:39:00,VALID,915.258,VALID,0,VALID,99.7993,VALID,-0.0679233,VALID,17.9605,VALID,80,VALID,0.476749,
2005-03-31, 02:40:00,VALID,915.222,VALID,0,VALID,99.9494,VALID,-0.0849042,VALID,17.97,VALID,72,VALID,0.454799,
2005-03-31, 02:41:00,VALID,915.179,VALID,0,VALID,99.9977,VALID,-0.0169808,VALID,17.9831,VALID,57,VALID,0.617932,
2005-03-31, 02:42:00,VALID,915.15,VALID,0,VALID,99.9977,VALID,-0.0509425,VALID,17.993,VALID,37,VALID,0.609003,
2005-03-31, 02:43:00,VALID,915.133,VALID,0,VALID,99.9944,VALID,-0.0679233,VALID,18.0027,VALID,30,VALID,0.160156,
2005-03-31, 02:44:00,VALID,915.117,VALID,0,VALID,99.8858,VALID,-0.0849042,VALID,17.9868,VALID,274,VALID,0.597656,
2005-03-31, 02:45:00,VALID,915.111,VALID,0,VALID,99.8248,VALID,-0.0339617,VALID,17.9695,VALID,275,VALID,0.310976,
2005-03-31, 02:46:00,VALID,915.111,VALID,0,VALID,99.8044,VALID,-0.0339617,VALID,17.9926,VALID,279,VALID,0.00436047,
2005-03-31, 02:47:00,VALID,915.116,VALID,0,VALID,99.5463,VALID,-0.0509425,VALID,17.9797,VALID,279,VALID,0.166667,
2005-03-31, 02:48:00,VALID,915.136,VALID,0,VALID,99.3034,VALID,-0.0509425,VALID,18.0089,VALID,279,VALID,0.0168968,
2005-03-31, 02:49:00,VALID,915.143,VALID,0,VALID,99.1292,VALID,0,VALID,18.0152,VALID,279,VALID,0.0258413,
2005-03-31, 02:50:00,VALID,915.13,VALID,0,VALID,99.1089,VALID,0,VALID,18.0218,VALID,343,VALID,0.230945,
2005-03-31, 02:51:00,VALID,915.147,VALID,0,VALID,99.1012,VALID,-0.0339617,VALID,18.0412,VALID,52,VALID,0.826215,
2005-03-31, 02:52:00,VALID,915.172,VALID,0,VALID,98.7541,VALID,-0.0169808,VALID,18.0604,VALID,44,VALID,0.116443,
2005-03-31, 02:53:00,VALID,915.175,VALID,0,VALID,98.5354,VALID,0,VALID,18.0793,VALID,44,VALID,0.077567,
2005-03-31, 02:54:00,VALID,915.19,VALID,0,VALID,98.3777,VALID,-0.0169808,VALID,18.1025,VALID,42,VALID,0.425595,
2005-03-31, 02:55:00,VALID,915.207,VALID,0,VALID,98.4057,VALID,-0.0509425,VALID,18.1219,VALID,40,VALID,0.0106707,
2005-03-31, 02:56:00,VALID,915.209,VALID,0,VALID,98.3294,VALID,-0.0169808,VALID,18.1185,VALID,68,VALID,0.441778,
2005-03-31, 02:57:00,VALID,915.204,VALID,0,VALID,97.9479,VALID,0,VALID,18.0795,VALID,123,VALID,0.850654,
2005-03-31, 02:58:00,VALID,915.193,VALID,0,VALID,97.7546,VALID,0,VALID,18.0668,VALID,116,VALID,0.910065,
2005-03-31, 02:59:00,VALID,915.184,VALID,0,VALID,98.1386,VALID,0,VALID,18.0829,VALID,110,VALID,0.655849,
2005-03-31, 03:00:00,VALID,915.181,VALID,0,VALID,98.3879,VALID,-0.0169808,VALID,18.0894,VALID,100,VALID,0.397727,
2005-03-31, 03:01:00,VALID,915.171,VALID,0,VALID,98.3612,VALID,0,VALID,18.0827,VALID,81,VALID,0.382449,
2005-03-31, 03:02:00,VALID,915.16,VALID,0,VALID,98.4553,VALID,0.0169808,VALID,18.07,VALID,60,VALID,0.256288,
2005-03-31, 03:03:00,VALID,915.15,VALID,0,VALID,98.5125,VALID,0,VALID,18.0668,VALID,60,VALID,0.205602,
2005-03-31, 03:04:00,VALID,915.142,VALID,0,VALID,98.5494,VALID,0,VALID,18.0311,VALID,60,VALID,0.0296875,
2005-03-31, 03:05:00,VALID,915.117,VALID,0,VALID,98.6549,VALID,0,VALID,18.0281,VALID,60,VALID,0.148037,
2005-03-31, 03:06:00,VALID,915.115,VALID,0,VALID,98.6689,VALID,0.0169808,VALID,18.0018,VALID,85,VALID,0.669202,
2005-03-31, 03:07:00,VALID,915.125,VALID,0,VALID,98.5048,VALID,0,VALID,18.0055,VALID,96,VALID,0.569247,
2005-03-31, 03:08:00,VALID,915.133,VALID,0,VALID,98.5099,VALID,-0.0339617,VALID,18.0246,VALID,96,VALID,0.190505,
2005-03-31, 03:09:00,VALID,915.124,VALID,0,VALID,98.5392,VALID,-0.0169808,VALID,18.0504,VALID,96,VALID,0.0025436,
2005-03-31, 03:10:00,VALID,915.116,VALID,0,VALID,98.5672,VALID,0.0169808,VALID,18.0567,VALID,100,VALID,0.381037,
2005-03-31, 03:11:00,VALID,915.116,VALID,0,VALID,98.632,VALID,0,VALID,18.0574,VALID,110,VALID,0.652876,
2005-03-31, 03:12:00,VALID,915.117,VALID,0,VALID,98.6816,VALID,0,VALID,18.0576,VALID,112,VALID,0.487153,
2005-03-31, 03:13:00,VALID,915.116,VALID,0,VALID,98.7197,VALID,-0.0339617,VALID,18.0541,VALID,112,VALID,0.121185,
2005-03-31, 03:14:00,VALID,915.11,VALID,0,VALID,98.6473,VALID,-0.0339617,VALID,18.0703,VALID,112,VALID,0.00347222,
2005-03-31, 03:15:00,VALID,915.11,VALID,0,VALID,98.5684,VALID,-0.0339617,VALID,18.0995,VALID,112,VALID,0,
2005-03-31, 03:16:00,VALID,915.112,VALID,0,VALID,98.5303,VALID,-0.0339617,VALID,18.1055,VALID,112,VALID,0.0384909,
2005-03-31, 03:17:00,VALID,915.093,VALID,0,VALID,98.5481,VALID,-0.0169808,VALID,18.1245,VALID,112,VALID,0.00817587,
2005-03-31, 03:18:00,VALID,915.098,VALID,0,VALID,98.3484,VALID,0.0169808,VALID,18.1249,VALID,112,VALID,0.0941311,
2005-03-31, 03:19:00,VALID,915.095,VALID,0,VALID,98.3103,VALID,0,VALID,18.121,VALID,112,VALID,0.144361,
2005-03-31, 03:20:00,VALID,915.107,VALID,0,VALID,98.501,VALID,0,VALID,18.1281,VALID,52,VALID,0.603795,
2005-03-31, 03:21:00,VALID,915.116,VALID,0,VALID,98.693,VALID,-0.0169808,VALID,18.1219,VALID,31,VALID,0.523828,
2005-03-31, 03:22:00,VALID,915.129,VALID,0,VALID,98.4489,VALID,0,VALID,18.0827,VALID,3,VALID,0.477653,
2005-03-31, 03:23:00,VALID,915.154,VALID,0,VALID,97.8474,VALID,-0.0169808,VALID,18.0601,VALID,356,VALID,0.271181,
2005-03-31, 03:24:00,VALID,915.161,VALID,0,VALID,97.6122,VALID,-0.0339617,VALID,18.0472,VALID,356,VALID,0.574673,
2005-03-31, 03:25:00,VALID,915.162,VALID,0,VALID,97.2371,VALID,0,VALID,18.047,VALID,13,VALID,1.02217,
2005-03-31, 03:26:00,VALID,915.171,VALID,0,VALID,96.7945,VALID,0,VALID,18.0795,VALID,23,VALID,0.846608,
2005-03-31, 03:27:00,VALID,915.192,VALID,0,VALID,96.5758,VALID,-0.0169808,VALID,18.1281,VALID,328,VALID,0.75641,
2005-03-31, 03:28:00,VALID,915.161,VALID,0,VALID,96.5479,VALID,-0.0169808,VALID,18.1408,VALID,325,VALID,0.555664,
2005-03-31, 03:29:00,VALID,915.163,VALID,0,VALID,96.6458,VALID,0,VALID,18.1438,VALID,15,VALID,0.68423,
2005-03-31, 03:30:00,VALID,915.174,VALID,0,VALID,96.6241,VALID,0,VALID,18.1574,VALID,336,VALID,0.622768,
2005-03-31, 03:31:00,VALID,915.174,VALID,0,VALID,96.4779,VALID,0,VALID,18.1634,VALID,333,VALID,0.49707,
2005-03-31, 03:32:00,VALID,915.179,VALID,0,VALID,96.4003,VALID,-0.0169808,VALID,18.1701,VALID,291,VALID,0.131138,
2005-03-31, 03:33:00,VALID,915.188,VALID,0,VALID,96.6941,VALID,-0.0339617,VALID,18.1862,VALID,269,VALID,0.403993,
2005-03-31, 03:34:00,VALID,915.176,VALID,0,VALID,96.7322,VALID,-0.0169808,VALID,18.1537,VALID,275,VALID,0.258765,